Lexington Weather

Lexington, Massachusetts, USA

67°F
9/23/2021 4:50am 
  • Lexington Conditions: Overcast
  • Temperature: 67.3°F / 19.6°CWarmer 0.9°F than last hour.
  • Dew Point: 66.4°FIncreased 1.3°Fsince last hour.
  • Relative Humidity: 97%Increased 1.0% since last hour.
  • Wind: Calm, 10-min avg: Calm, gust: 4 mph
  • Barometer: 30.03 in Steady
  • Visibility: 10 miles
  • Rain Today: 0.00 in
  •   

Regional Weather Roundup
for Boston / Norton, MA

        
000
ASUS41 KBOX 222204
RWRBOX

REGIONAL WEATHER ROUNDUP
NATIONAL WEATHER SERVICE BOSTON/NORTON MA
600 PM EDT WED SEP 22 2021

NOTE:  "FAIR" INDICATES FEW OR NO CLOUDS BELOW 12,000 FEET WITH NO 
SIGNIFICANT WEATHER AND/OR OBSTRUCTIONS TO VISIBILITY.

MAZALL-222300-
EASTERN MASSACHUSETTS
  
CITY           SKY/WX    TMP DP  RH WIND       PRES   REMARKS
BOSTON         MOCLDY    76  67  73 S9        30.10S                  
BEVERLY        CLOUDY    71  68  90 SE6       30.10S                  
LAWRENCE       CLOUDY    74  69  85 VRB5      30.11S                  
BEDFORD        CLOUDY    74  69  85 S12       30.08S                  
BLUE HILL      NOT AVBL                                               
NORWOOD        MOCLDY    74  68  81 S6        30.09S                  
MARSHFIELD     CLOUDY    73  68  83 S6G13     30.11S                  
PLYMOUTH       CLOUDY    74  67  78 VRB5      30.12S                  
TAUNTON        CLOUDY    74  67  78 SE10      30.10F                  
NEW BEDFORD    MOCLDY    73  68  84 S10       30.11S                  
$$

MAZALL-222300-
CAPE COD AND THE ISLANDS
  
CITY           SKY/WX    TMP DP  RH WIND       PRES   REMARKS
FALMOUTH       PTCLDY    73  68  83 S14       30.12F                  
HYANNIS        CLEAR     72  69  90 S8        30.11F                  
CHATHAM        CLEAR     68  65  90 S8G16     30.14F                  
PROVINCETOWN   CLEAR     72  68  87 S9        30.13F                  
NANTUCKET        N/A    N/A N/A N/A MISG      30.13F                  
MARTHAS VNYRD  CLEAR     72  68  87 S10       30.12S                  
$$
 
MAZALL-222300-
CENTRAL AND WESTERN MASSACHUSETTS
  
CITY           SKY/WX    TMP DP  RH WIND       PRES   REMARKS
WORCESTER      CLOUDY    69  68  96 S8        30.11S                  
FITCHBURG      LGT RAIN  71  69  93 S6        30.09S FOG              
ORANGE         PTCLDY    74  67  78 SE8       30.07F                  
SPRINGFIELD    LGT RAIN  74  68  79 S7        30.04S                  
WESTFIELD      CLOUDY    75  69  81 S12G17    30.04S                  
NORTH ADAMS    NOT AVBL                                               
PITTSFIELD     PTCLDY    72  63  73 VRB7      30.04F                  
$$
 
RIZALL-222300-
RHODE ISLAND
  
CITY           SKY/WX    TMP DP  RH WIND       PRES   REMARKS
PROVIDENCE     MOCLDY    73  70  90 S13G20    30.10F                  
NEWPORT        PTCLDY    71  69  93 S12       30.10F                  
BLOCK ISLAND   CLEAR     71  68  90 S14       30.10S                  
SMITHFIELD     CLOUDY    71  69  93 VRB6      30.11S                  
WESTERLY       LGT RAIN  70  70 100 S7        30.09S                  
$$
 
CTZALL-222300-
CONNECTICUT
  
CITY           SKY/WX    TMP DP  RH WIND       PRES   REMARKS
BRADLEY INTL   LGT RAIN  73  71  93 S8        30.04F                  
HARTFORD       CLOUDY    75  70  84 SE8       30.04S                  
BRIDGEPORT     PTCLDY    77  71  82 S8        30.03F                  
DANBURY        MOCLDY    76  69  79 SE7       30.04F                  
GROTON         MOCLDY    71  69  93 SE12      30.07F                  
NEW HAVEN      MOCLDY    77  73  87 SE8       30.04F                  
CHESTER        CLOUDY    73  72  94 VRB7G14   30.07S                  
MERIDEN        CLOUDY    75  69  81 S7        30.04F                  
WILLIMANTIC    CLOUDY    72  69  90 S8        30.08S                  
OXFORD         MOCLDY    72  70  93 S8        30.07S                  
$$

MEZ002-015-021-024-NHZ003-005-008-011-012-014-VTZ005-008-222300-
NORTHERN NEW ENGLAND
  
CITY           SKY/WX    TMP DP  RH WIND       PRES   REMARKS
PORTLAND ME    CLOUDY    67  65  93 S8        30.13F                  
BANGOR ME      MOCLDY    68  61  78 S10       30.17S                  
CONCORD NH     CLOUDY    70  68  93 SE7       30.08F                  
MANCHESTER NH  CLOUDY    73  68  84 SE12      30.07S HAZE             
NASHUA NH      LGT RAIN  71  71 100 CALM      30.09S                  
PORTSMOUTH NH  CLOUDY    71  65  83 SE14      30.11F                  
JAFFREY NH     CLOUDY    72  70  93 S8        30.10S                  
KEENE NH       CLEAR     74  68  81 S9        30.06S                  
BURLINGTON VT  PTCLDY    78  66  66 S6        29.97S                  
MT. WASHINGTON LGT RAIN  54  54 100 S23G30      N/A  VSB 0            
$$

NYZ052-076-222300-
EASTERN NEW YORK
  
CITY           SKY/WX    TMP DP  RH WIND       PRES   REMARKS
ALBANY         MOCLDY    74  65  73 SE8       29.98S                  
NEW YORK CITY  MOCLDY    78  69  73 S13G24    30.00F                  
$$
 
ANZALL-222300-
MARINE OBSERVATIONS
  
STATION/POSITION TIME  TEMP    WIND        PRES    VSBY  WAVE
                       AIR SEA DIR/SP/G                  HT/PER
                 (UTC) (F)     (DEG/KT/KT) (MB)    (MI)  (FT/S)
BOSTON BUOY      2140      65  140/ 12/ 14 1020.0S
BUZZARDS BAY     2100          140/ 16/ 17 1020.4F
NANTUCKET SOUND  2140   74 72  160/ 14/ 16 1019.8F
MASS BAY-STELLWA 2104   68     160/ 12/ 16 1019.1F  1 7/8  3/ 4
ISLE OF SHOALS   2100   67     140/ 19/ 21 1018.7F
S OF BLOCK IS    2126      70                N/A           4/ 7
$$

......................KEY.........................
  SKY/WX - SKY CONDITION/PRESENT WEATHER
  TMP    - TEMPERATURE IN FAHRENHEIT
  DWPT   - DEWPOINT IN FAHRENHEIT
  RH     - RELATIVE HUMIDITY IN PERCENT
  WIND   - DIRECTION AND SPEED IN MPH
  PRES   - MEAN SEA LEVEL PRESSURE IN INCHES OF HG
  WCI    - WIND CHILL INDEX
  VSB    - VISIBILITY IN MILES
  HX     - HEAT INDEX
  TC     - TEMPERATURE IN CELSIUS
  VRB    - VARIABLE WIND DIRECTION
  N/A    - NOT AVAILABLE
  
      

Other recent Regional Weather Roundups

Thu Sep 23, 4:04am

Thu Sep 23, 3:04am

Thu Sep 23, 2:04am

Thu Sep 23, 1:04am

Thu Sep 23, 12:04am

Wed Sep 22, 11:04pm

Wed Sep 22, 10:04pm

Wed Sep 22, 9:04pm

Wed Sep 22, 8:04pm

Wed Sep 22, 7:04pm

Wed Sep 22, 5:04pm

Wed Sep 22, 4:04pm

Wed Sep 22, 3:04pm

Wed Sep 22, 2:04pm

Wed Sep 22, 1:04pm

Wed Sep 22, 12:05pm

Wed Sep 22, 11:04am

Wed Sep 22, 10:04am

Wed Sep 22, 9:04am

Wed Sep 22, 8:04am

Wed Sep 22, 7:04am

Wed Sep 22, 6:04am

Wed Sep 22, 5:04am

Wed Sep 22, 4:04am

Wed Sep 22, 3:04am

Wed Sep 22, 2:04am

Wed Sep 22, 1:04am

Wed Sep 22, 12:04am

Tue Sep 21, 11:04pm

Tue Sep 21, 10:04pm

Tue Sep 21, 9:04pm

Tue Sep 21, 8:04pm

Tue Sep 21, 7:04pm

Tue Sep 21, 6:04pm

Tue Sep 21, 5:04pm

Tue Sep 21, 4:04pm

Tue Sep 21, 3:04pm

Tue Sep 21, 2:04pm

Tue Sep 21, 1:04pm

Tue Sep 21, 12:04pm

Tue Sep 21, 11:04am

Tue Sep 21, 10:04am

Tue Sep 21, 9:04am

Tue Sep 21, 8:04am

Tue Sep 21, 7:04am

Tue Sep 21, 6:04am

Tue Sep 21, 5:04am

Tue Sep 21, 4:04am

Tue Sep 21, 3:04am

Tue Sep 21, 2:04am

Tue Sep 21, 1:04am

Tue Sep 21, 12:04am

Mon Sep 20, 11:04pm

Mon Sep 20, 10:04pm

Mon Sep 20, 9:04pm

Mon Sep 20, 8:04pm

Mon Sep 20, 7:04pm

Mon Sep 20, 6:04pm

Mon Sep 20, 5:04pm

Mon Sep 20, 4:04pm

Mon Sep 20, 3:04pm

Mon Sep 20, 2:04pm

Mon Sep 20, 1:04pm

Mon Sep 20, 12:04pm

Mon Sep 20, 11:04am

Mon Sep 20, 10:04am

Mon Sep 20, 9:04am

Mon Sep 20, 7:04am

Mon Sep 20, 6:04am

Mon Sep 20, 5:04am

Mon Sep 20, 4:04am

Mon Sep 20, 3:04am

Mon Sep 20, 2:04am

Mon Sep 20, 1:04am

Mon Sep 20, 12:04am

Sun Sep 19, 11:04pm

Sun Sep 19, 10:04pm

Sun Sep 19, 9:04pm

Sun Sep 19, 8:04pm

Sun Sep 19, 7:04pm

Sun Sep 19, 6:04pm

Sun Sep 19, 5:04pm

Sun Sep 19, 4:04pm

Sun Sep 19, 3:04pm

Sun Sep 19, 2:05pm

Sun Sep 19, 1:04pm

Sun Sep 19, 12:04pm

Sun Sep 19, 11:04am

Sun Sep 19, 10:05am

Sun Sep 19, 9:04am

Sun Sep 19, 8:04am

Sun Sep 19, 7:04am

Sun Sep 19, 6:04am

Sun Sep 19, 5:04am

Sun Sep 19, 4:04am

Sun Sep 19, 3:04am

Sun Sep 19, 2:04am

Sun Sep 19, 1:04am

Sun Sep 19, 12:04am

Sat Sep 18, 11:05pm

Sat Sep 18, 10:04pm

Sat Sep 18, 9:04pm

Sat Sep 18, 8:04pm

Sat Sep 18, 7:04pm

Sat Sep 18, 6:04pm

Sat Sep 18, 5:04pm

Sat Sep 18, 4:04pm

Sat Sep 18, 3:04pm

Sat Sep 18, 2:04pm

Sat Sep 18, 1:04pm

Sat Sep 18, 12:04pm

Sat Sep 18, 11:04am

Sat Sep 18, 10:04am

Sat Sep 18, 9:04am

Sat Sep 18, 8:04am

Sat Sep 18, 7:04am

Sat Sep 18, 6:04am

Sat Sep 18, 5:04am

Sat Sep 18, 4:04am

Sat Sep 18, 3:04am

Sat Sep 18, 2:04am

Sat Sep 18, 1:04am

Sat Sep 18, 12:04am

Fri Sep 17, 11:04pm

Fri Sep 17, 10:04pm

Fri Sep 17, 9:04pm

Fri Sep 17, 8:04pm

Fri Sep 17, 7:04pm

Fri Sep 17, 6:04pm

Fri Sep 17, 5:04pm

Fri Sep 17, 4:04pm

Fri Sep 17, 3:04pm

Fri Sep 17, 2:04pm

Fri Sep 17, 1:04pm

Fri Sep 17, 12:05pm

Fri Sep 17, 11:04am

Fri Sep 17, 10:04am

Fri Sep 17, 9:04am

Fri Sep 17, 8:04am

Fri Sep 17, 7:04am

Fri Sep 17, 6:04am

Fri Sep 17, 5:04am

Fri Sep 17, 4:04am

Fri Sep 17, 3:04am

Fri Sep 17, 2:04am

Fri Sep 17, 1:04am

Fri Sep 17, 12:04am

Thu Sep 16, 11:04pm

Thu Sep 16, 10:04pm

Thu Sep 16, 9:04pm

Thu Sep 16, 8:04pm

Thu Sep 16, 7:04pm

Thu Sep 16, 6:04pm

Thu Sep 16, 5:04pm

Thu Sep 16, 4:04pm

Thu Sep 16, 3:04pm

Thu Sep 16, 2:04pm

Thu Sep 16, 1:05pm

Thu Sep 16, 12:04pm

Thu Sep 16, 11:05am

Thu Sep 16, 10:05am

Thu Sep 16, 9:04am

Thu Sep 16, 8:04am

Thu Sep 16, 7:04am

Thu Sep 16, 6:04am

Thu Sep 16, 5:04am

Meta data:

ID: 87dd0e76-d7b5-4c60-976b-cce45df57ec5
Link: https://api.weather.gov/products/87dd0e76-d7b5-4c60-976b-cce45df57ec5